Regional Weather Roundup
Issued by NWS Northern Indiana

Home | Current Version | Previous Version | Text Only | Print | Product List | Glossary Off
Versions: 1 2 3 4 5 6 7 8 9 10 11 12 13 14 15 16 17 18 19 20 21 22 23 24 25 26 27 28 29 30 31 32 33 34 35 36 37 38 39 40 41 42 43 44 45 46 47 48 49 50

000
ASUS43 KIWX 250010
RWRIWX

KIWX WEATHER ROUNDUP
NATIONAL WEATHER SERVICE NORTHERN INDIANA
800 PM EDT FRI APR 24 2015

NOTE: "FAIR" INDICATES FEW OR NO CLOUDS BELOW 12,000 FEET WITH NO
SIGNIFICANT WEATHER AND/OR OBSTRUCTIONS TO VISIBILITY.

* THESE STATIONS ARE NOT UNDER NWS QUALITY CONTROL. THEY ALSO MAY NOT
  REPORT WEATHER SUCH AS PRECIPITATION OR FOG.

INZ001>027-250100-
NORTHERN INDIANA

CITY           SKY/WX    TMP DP  RH WIND       PRES   REMARKS
GARY*          CLOUDY    48  23  37 E12G26    29.94R
VALPARAISO     CLOUDY    55  26  32 NE9       29.92S
6HR MIN TEMP:  55; 6HR MAX TEMP:  63;

MICHIGAN CITY* CLOUDY    52  18  25 NE7       29.94R
LAPORTE*       CLOUDY    55  26  33 NE6       29.93S
6HR MIN TEMP:  55; 6HR MAX TEMP:  62;

KNOX*          CLOUDY    59 -36   1 SE12      29.91S
SOUTH BEND     CLOUDY    55  25  31 NE10      29.95S
6HR MIN TEMP:  55; 6HR MAX TEMP:  61; 6HR PCP: TRACE;

ELKHART*       CLOUDY    55  21  26 NE6       29.95S
GOSHEN         CLOUDY    56  29  35 E5        29.94F
6HR MIN TEMP:  56; 6HR MAX TEMP:  60;

MONTICELLO*    CLOUDY    58  31  35 S5        29.90F
6HR MIN TEMP:  58; 6HR MAX TEMP:  61;

LOGANSPORT*    CLOUDY    55  28  35 SE5       29.92F
ROCHESTER*     MOCLDY    59  27  29 SE5       29.93F
WARSAW*        CLOUDY    57  23  26 SE3       29.94S
ANGOLA*        CLOUDY    55  25  30 CALM      29.94F
FORT WAYNE     MOCLDY    56  29  35 S5        29.96S
6HR MIN TEMP:  56; 6HR MAX TEMP:  60;

HUNTINGTON*    MOCLDY    56  23  27 S5        29.94F
6HR MIN TEMP:  56; 6HR MAX TEMP:  60;

PERU/GRISSOM   CLOUDY    57  31  37 SE6       29.91F
6HR MIN TEMP:  57; 6HR MAX TEMP:  61;

MARION*        CLOUDY    56  25  29 SE5       29.94F
6HR MIN TEMP:  29; 6HR MAX TEMP:  59;


$$
INZ028>050-250100-
CENTRAL INDIANA

CITY           SKY/WX    TMP DP  RH WIND       PRES   REMARKS
LAFAYETTE      CLOUDY    56  27  32 SE5       29.90F
6HR MIN TEMP:  56; 6HR MAX TEMP:  61;

KOKOMO*        CLOUDY    57  30  35 S9        29.92F
6HR MIN TEMP:  57; 6HR MAX TEMP:  61;

MUNCIE*        CLOUDY    58  21  24 S5        29.94F
6HR MIN TEMP:  56; 6HR MAX TEMP:  61;

INDIANAPOLIS   CLOUDY    58  26  29 SE9       29.91F
6HR MIN TEMP:  58; 6HR MAX TEMP:  62;


$$
MIZ043>046-050>051-056>058-064>065-071>073-077>080-250100-
SOUTHWEST LOWER MICHIGAN

CITY           SKY/WX    TMP DP  RH WIND       PRES   REMARKS
BATTLE CREEK   CLOUDY    57  23  26 S3        29.95F
6HR MIN TEMP:  54; 6HR MAX TEMP:  59;

BENTON HARBOR  CLOUDY    45  30  55 N7        29.97S
6HR MIN TEMP:  44; 6HR MAX TEMP:  55; 6HR PCP:  0.01;

COLDWATER*     CLOUDY    54  29  38 CALM      29.94F
6HR MIN TEMP:  53; 6HR MAX TEMP:  58;

HILLSDALE*     MOCLDY    55  21  26 CALM      29.95S
6HR MIN TEMP:  53; 6HR MAX TEMP:  58;

HOLLAND        CLOUDY    54  18  24 NW5       29.98S
6HR MIN TEMP:  54; 6HR MAX TEMP:  58;

GRAND RAPIDS   CLOUDY    53  23  31 NW10      29.97S
6HR MIN TEMP:  53; 6HR MAX TEMP:  58;

KALAMAZOO      CLOUDY    58  20  22 CALM      29.94F
6HR MIN TEMP:  55; 6HR MAX TEMP:  61;

STURGIS*       LGT RAIN  52  34  50 CALM      29.95S
THREE RIVERS*  LGT RAIN  53  31  42 CALM      29.95S

$$
OHZ001>008-015>018-024>025-250100-
NORTHWEST OHIO

CITY           SKY/WX    TMP DP  RH WIND       PRES   REMARKS
WAUSEON*       FAIR      57  25  28 CALM      29.95F
DEFIANCE       CLOUDY    59  19  21 CALM      29.95F
6HR MIN TEMP:  57; 6HR MAX TEMP:  61;

FINDLAY        CLOUDY    58  19  22 CALM      29.96S
6HR MIN TEMP:  55; 6HR MAX TEMP:  61;

TOLEDO EXPRESS PTCLDY    56  21  25 N3        29.96F
6HR MIN TEMP:  54; 6HR MAX TEMP:  59;

TOLEDO METCALF CLEAR     53  28  38 E8        29.97F
6HR MIN TEMP:  53; 6HR MAX TEMP:  60;

LIMA           MOCLDY    55  26  32 SW5       29.97R
6HR MIN TEMP:  55; 6HR MAX TEMP:  58;


$$
AND FOR LAKE MICHIGAN COASTAL AND OPEN LAKE BUOY OBSERVATIONS

STATION/POSITION TEMP    WIND        PRES    VSBY  WAVE
                 AIR SEA DIR/SP/G                  HT/PER
                 (F)     (DEG/KT/KT) (MB)    (MI)  (FT/S)
CALUMET HARBOR    45      30/  8/ 11   N/A
MICHIGAN CITY     47      30/ 18/ 21   N/A
BURNS HARBOR      48      60/ 17/ 21 1013.9S
SAINT JOSEPH      48      20/  8/ 14 1014.9F
MICHIGAN CITY     44 44   80/ 14/ 17   N/A           3/ 3

$$
&&



USA.gov is the U.S. government's official web portal to all federal, state and local government web resources and services.